N2YJJ-2 Weather Reports


Display with metric or nautical units.
time (UTC)temp
F
wind
direction
speed
MPH
gust
MPH
rain 1hr
in
rain 24hr
in
rain mn
in
humidity
%
barometer
mb
20260904191003 76 101 0.0 2.0 0.00 0.04 0.01 73 1019.2
20260904190003 77 0 0.0 3.0 0.00 0.04 0.01 75 1019.4
20260904185003 77 101 0.0 2.0 0.00 0.04 0.01 73 1019.3
20260904184003 77 246 0.0 1.0 0.00 0.04 0.01 73 1019.3
20260904182003 80 43 1.0 3.0 0.00 0.04 0.01 68 1019.4
20260904181003 80 336 1.0 3.0 0.00 0.04 0.01 65 1019.4
20260904180004 80 356 1.0 2.0 0.00 0.04 0.01 68 1019.4
20260904173004 80 39 1.0 3.0 0.00 0.05 0.01 72 1019.8
20260904171003 80 306 1.0 3.0 0.00 0.05 0.01 72 1019.8
20260904170004 80 286 1.0 3.0 0.00 0.05 0.01 73 1019.9
20260904165004 79 330 1.0 3.0 0.00 0.05 0.01 73 1020.0
20260904164003 79 227 0.0 5.0 0.00 0.05 0.01 75 1020.3
20260904163003 79 279 0.0 3.0 0.00 0.05 0.01 78 1020.3
20260904161004 79 259 1.0 3.0 0.00 0.05 0.01 77 1020.4
20260904160004 78 343 0.0 3.0 0.00 0.05 0.01 76 1020.2
20260904153003 79 69 1.0 3.0 0.00 0.06 0.01 76 1019.9
20260904151004 78 42 2.0 3.0 0.00 0.06 0.01 77 1019.9
20260904150004 77 19 1.0 3.0 0.00 0.06 0.01 78 1020.2
20260904144004 76 39 1.0 5.0 0.00 0.06 0.01 79 1019.9
20260904143003 76 322 0.0 3.0 0.00 0.06 0.01 83 1020.0
20260904142004 76 254 1.0 3.0 0.00 0.06 0.01 84 1020.1
20260904141003 75 54 0.0 3.0 0.00 0.06 0.01 85 1020.0
20260904140004 73 50 1.0 2.0 0.00 0.06 0.01 86 1020.1
20260904135003 72 257 1.0 2.0 0.00 0.06 0.01 90 1020.1
20260904134004 71 257 1.0 2.0 0.00 0.06 0.01 90 1020.1
20260904132005 70 257 0.0 3.0 0.00 0.06 0.01 94 1020.4
20260904131004 70 247 0.0 1.0 0.00 0.06 0.01 96 1020.1
20260904130005 68 247 0.0 3.0 0.00 0.06 0.01 98 1020.2
20260904125006 68 247 0.0 0.0 0.01 0.06 0.01 100 1020.1
20260904124005 67 247 0.0 0.0 0.01 0.06 0.01 100 1020.3
20260904123005 65 247 0.0 0.0 0.01 0.06 0.01 100 1020.3
20260904122006 64 247 1.0 2.0 0.01 0.07 0.01 100 1020.2
20260904121006 64 226 0.0 2.0 0.01 0.07 0.01 99 1020.2
20260904115005 63 141 0.0 0.0 0.00 0.06 0.00 100 1020.0
20260904114005 62 141 0.0 0.0 0.00 0.06 0.00 100 1019.9
20260904112005 61 141 0.0 0.0 0.00 0.06 0.00 98 1019.9
20260904110006 61 141 0.0 0.0 0.00 0.06 0.00 98 1019.8
20260904105005 61 141 0.0 0.0 0.00 0.06 0.00 98 1019.7
20260904104005 62 141 0.0 0.0 0.00 0.06 0.00 98 1019.7
20260904103005 62 141 0.0 0.0 0.00 0.06 0.00 98 1019.6
20260904102006 62 141 0.0 0.0 0.00 0.06 0.00 98 1019.5
20260904101005 62 141 0.0 0.0 0.00 0.06 0.00 98 1019.7
20260904100007 62 141 0.0 0.0 0.00 0.06 0.00 97 1019.5
20260904095006 62 141 0.0 0.0 0.00 0.06 0.00 97 1019.4
20260904094006 63 141 0.0 0.0 0.00 0.06 0.00 97 1019.4
20260904093005 63 141 0.0 0.0 0.00 0.06 0.00 97 1019.4
20260904092006 63 141 0.0 0.0 0.00 0.06 0.00 97 1019.5
20260904091006 64 141 0.0 0.0 0.00 0.06 0.00 97 1019.3
20260904090007 64 141 0.0 0.0 0.00 0.06 0.00 96 1019.5
20260904083006 65 141 0.0 0.0 0.00 0.07 0.00 96 1019.2
20260904082005 66 141 0.0 0.0 0.00 0.07 0.00 97 1019.2
20260904081005 66 141 0.0 0.0 0.00 0.07 0.00 97 1019.1
20260904074006 66 141 0.0 0.0 0.00 0.07 0.00 98 1018.8
20260904073006 66 141 0.0 0.0 0.00 0.07 0.00 98 1018.8
20260904072005 66 141 0.0 0.0 0.00 0.07 0.00 98 1018.8
20260904071006 66 141 0.0 0.0 0.00 0.07 0.00 98 1018.7
20260904070005 67 141 0.0 0.0 0.00 0.07 0.00 98 1018.6
20260904065005 67 141 0.0 0.0 0.00 0.07 0.00 99 1018.7
20260904064006 67 141 0.0 0.0 0.00 0.07 0.00 98 1018.7
20260904062005 66 141 0.0 0.0 0.00 0.07 0.00 98 1018.7
20260904061006 67 141 0.0 0.0 0.00 0.07 0.00 98 1018.7
20260904060006 67 141 0.0 0.0 0.00 0.07 0.00 99 1018.8
20260904055006 67 141 0.0 0.0 0.00 0.07 0.00 99 1018.9
20260904054006 67 141 0.0 0.0 0.00 0.07 0.00 99 1019.0
20260904053006 67 141 0.0 0.0 0.00 0.07 0.00 99 1019.2
20260904052006 67 141 0.0 1.0 0.00 0.07 0.00 99 1019.3
20260904051006 67 305 0.0 1.0 0.00 0.08 0.00 98 1019.3
20260904050005 67 322 0.0 0.0 0.00 0.08 0.00 98 1019.3
20260904044007 67 306 0.0 0.0 0.01 0.08 0.00 99 1019.3
20260904041005 66 283 0.0 0.0 0.01 0.08 0.00 98 1019.1
20260904040006 67 283 0.0 0.0 0.01 0.08 0.00 98 1019.0
20260904035006 67 283 0.0 0.0 0.01 0.08 0.08 98 1018.9
20260904034006 67 283 0.0 0.0 0.00 0.07 0.07 98 1018.8
20260904032006 67 283 0.0 0.0 0.00 0.07 0.07 97 1018.7
20260904030006 67 283 0.0 0.0 0.00 0.07 0.07 97 1018.5
20260904023006 68 283 0.0 0.0 0.00 0.07 0.07 96 1018.6
20260904022006 68 283 0.0 0.0 0.00 0.07 0.07 95 1018.8
20260904021007 68 283 0.0 0.0 0.00 0.08 0.07 94 1018.8
20260904020007 69 333 0.0 0.0 0.00 0.08 0.07 94 1018.6
20260904015003 69 283 0.0 0.0 0.00 0.08 0.07 93 1018.4
20260904014003 69 275 0.0 0.0 0.00 0.08 0.07 93 1018.4
20260904013003 70 275 0.0 0.0 0.00 0.08 0.07 92 1018.3
20260904012003 70 214 0.0 0.0 0.00 0.08 0.07 91 1018.1
20260904011002 71 214 0.0 0.0 0.00 0.08 0.07 90 1018.1
20260904004002 72 214 0.0 1.0 0.00 0.08 0.07 89 1017.8
20260904003003 72 214 1.0 2.0 0.00 0.08 0.07 88 1017.7
20260904002002 73 214 0.0 2.0 0.00 0.08 0.07 87 1017.8
20260904001002 73 265 0.0 7.0 0.00 0.08 0.07 87 1017.5
20260904000003 73 343 1.0 5.0 0.00 0.08 0.07 88 1017.4
20260903234003 75 9 2.0 5.0 0.00 0.08 0.07 91 1017.4
20260903233002 75 344 2.0 8.0 0.00 0.09 0.07 91 1017.3
20260903232003 76 347 2.0 7.0 0.01 0.09 0.07 91 1017.4
20260903230002 78 321 0.0 0.0 0.01 0.09 0.07 93 1017.1
20260903225002 78 321 0.0 0.0 0.01 0.09 0.07 92 1016.9
20260903224002 79 321 0.0 0.0 0.01 0.09 0.07 92 1016.9
20260903223002 79 321 0.0 0.0 0.01 0.09 0.07 91 1017.2
20260903222003 79 321 0.0 0.0 0.00 0.08 0.06 90 1017.0
20260903215004 81 321 0.0 0.0 0.00 0.09 0.06 87 1016.4
20260903214002 81 321 0.0 0.0 0.00 0.09 0.06 86 1016.6
20260903213003 81 321 0.0 2.0 0.00 0.09 0.06 86 1016.6
20260903212003 81 286 1.0 3.0 0.00 0.09 0.06 83 1016.4
20260903211002 82 256 0.0 2.0 0.00 0.10 0.06 84 1016.8
20260903210002 82 188 0.0 2.0 0.00 0.10 0.06 83 1016.9
20260903204003 82 39 1.0 3.0 0.01 0.10 0.06 83 1017.2
20260903203002 82 275 1.0 3.0 0.01 0.10 0.06 82 1017.3
20260903202003 83 224 1.0 3.0 0.01 0.11 0.06 81 1017.3
20260903201003 83 328 1.0 3.0 0.01 0.11 0.06 82 1017.3
20260903200004 83 250 1.0 3.0 0.01 0.11 0.06 84 1017.5
20260903195003 83 24 0.0 3.0 0.01 0.11 0.06 84 1017.5
20260903194003 83 23 0.0 3.0 0.00 0.10 0.05 85 1017.4
20260903193003 83 277 1.0 5.0 0.00 0.11 0.05 84 1017.6
20260903192003 83 228 1.0 3.0 0.00 0.11 0.05 84 1017.5